User: anonymous   Login
Location: Huesca
(42.1318°N, 0.4078°W)
Time: 01:09:22
(UTC+02:00)
Language:

ITAMSAT 1 - Orbit

View from above orbital plane
View from above orbital plane
View from above satellite
View from above satellite

Ground track
Ground track

The orbit data is extracted from the following two-line orbital elements,

1 22826U 93061D   24194.40980196  .00000225  00000-0  10305-3 0  9997
2 22826  98.7815 247.3111 0008755 357.7838   2.3304 14.30903789606508
Epoch (UTC): 12 July 2024 09:50:06
Eccentricity: 0.0008755
inclination: 98.7815°
perigee height: 782 km
apogee height: 795 km
right ascension of ascending node: 247.3111°
argument of perigee: 357.7838°
revolutions per day: 14.30903789
mean anomaly at epoch: 2.3304°
orbit number at epoch: 60650

The dashed part of the orbit path shows where the satellite is in the earth's shadow,  

DLR